Home > Weather > Oer-Erkenschwick > Past weeks

Flag for Germany Weather for the Past 2 Weeks in Oer-Erkenschwick, North Rhine-Westphalia, Germany

Now
64 °F

Sunny.


Feels Like: 64 °F
Forecast: 55 / 74 °F
Wind: 7 mph from Southeast

Location: Dortmund / Wickede

Current Time: May 7, 2016 at 1:14:25 AM

Latest Report: May 6, 2016 at 9:50 PM


Visibility: 10 mi

Pressure: 29.92 "Hg

Humidity: 34%

Dew Point: 36 °F

Location of Oer-ErkenschwickLocation

Historic Weather in Oer-Erkenschwick — Graph

°F

Oer-Erkenschwick Temperature Yesterday

Maximum temperature yesterday: 75 °F (at 3:50 PM)
Minimum temperature yesterday: 45 °F (at 5:50 AM)
Average temperature yesterday: 65 °F

High & Low Weather Summary for the Past Weeks

 TemperatureHumidityPressure
High75 °F (May 6, 3:50 PM)93% (Apr 24, 4:50 PM)30.42 "Hg (Apr 24, 4:50 PM)
Low34 °F (Apr 24, 4:20 PM)24% (May 6, 5:20 PM)29.45 "Hg (Apr 26, 1:50 PM)
Average47 °F63%30.01 "Hg
* Reported Apr 21 9:20 PM — May 6 9:50 PM, Oer-Erkenschwick, Weather by CustomWeather, © 2016

Note: Actual official high and low records may vary slightly from our data, if they occured in-between our weather recording intervals... More about our weather records

Advertising

Oer-Erkenschwick Weather History for the Previous 24 Hours

Scroll right to see more
 ConditionsComfort  
Time TempWeatherWind HumidityBarometerVisibility
9:50 PM
Fri, May 6
64 °FSunny.7 mph34%29.92 "Hg10 mi
9:20 PM66 °FPassing clouds.6 mph32%29.89 "HgN/A
8:50 PM66 °FSunny.7 mph32%29.89 "Hg10 mi
8:20 PM68 °FSunny.7 mph30%29.89 "Hg10 mi
7:50 PM70 °FSunny.8 mph31%29.89 "Hg10 mi
7:20 PM73 °FSunny.10 mph25%29.89 "Hg10 mi
6:50 PM73 °FSunny.12 mph27%29.89 "Hg10 mi
6:20 PM75 °FPassing clouds.10 mph25%29.89 "HgN/A
5:50 PM75 °FPassing clouds.10 mph25%29.89 "HgN/A
5:20 PM75 °FPassing clouds.9 mph24%29.89 "HgN/A
4:50 PM75 °FPassing clouds.12 mph27%29.89 "HgN/A
4:20 PM75 °FPassing clouds.10 mph29%29.92 "HgN/A
3:50 PM75 °FPassing clouds.10 mph29%29.92 "HgN/A
3:20 PM73 °FPassing clouds.14 mph25%29.92 "HgN/A
2:50 PM73 °FSunny.13 mph27%29.92 "Hg10 mi
2:20 PM73 °FPassing clouds.9 mph29%29.95 "HgN/A
1:50 PM73 °FPassing clouds.9 mph27%29.95 "HgN/A
1:20 PM72 °FPassing clouds.10 mph31%29.95 "HgN/A
12:50 PM70 °FPassing clouds.8 mph38%29.98 "HgN/A
12:20 PM70 °FPassing clouds.8 mph35%29.98 "HgN/A
11:50 AM68 °FPassing clouds.8 mph40%29.98 "HgN/A
11:20 AM66 °FPassing clouds.8 mph43%29.98 "HgN/A
10:50 AM64 °FPassing clouds.9 mph49%29.98 "HgN/A
10:20 AM63 °FPassing clouds.10 mph52%30.01 "HgN/A
9:50 AM61 °FSunny.9 mph55%30.01 "Hg10 mi
9:20 AM59 °FPassing clouds.5 mph68%30.01 "HgN/A
8:50 AM55 °FSunny.3 mph72%30.01 "Hg10 mi
8:20 AM52 °FSunny.3 mph77%30.04 "Hg10 mi
7:50 AM50 °FSunny.2 mph76%30.04 "Hg10 mi
7:20 AM48 °FSunny.2 mph82%30.04 "Hg10 mi
6:50 AM46 °FClear.6 mph82%30.04 "Hg10 mi
6:20 AM46 °FClear.8 mph82%30.04 "Hg10 mi
5:50 AM45 °FClear.8 mph81%30.04 "Hg10 mi
5:20 AM46 °FClear.6 mph82%30.07 "Hg10 mi
Weather by CustomWeather, © 2016

See weather overviewHow to use our weather pages